Hourly Weather Abay (Syrdarinskiy rayon)

Today, 16 January, Saturday

Time Temperature Precipitation Wind Pressure Humidity
00:00 -12°C° 0 mm 7 mps 750 mmHg 75%
01:00 -12°C° 0 mm 7 mps 749 mmHg 74%
02:00 -11°C° 0 mm 7 mps 749 mmHg 74%
03:00 -11°C° 0 mm 7 mps 749 mmHg 73%
04:00 -12°C° 0 mm 7 mps 748 mmHg 72%
05:00 -11°C° 0 mm 6 mps 748 mmHg 73%
06:00 -10°C° 0 mm 6 mps 748 mmHg 74%
07:00 -8°C° 0 mm 5 mps 748 mmHg 74%
08:00 -5°C° 0 mm 5 mps 748 mmHg 73%
09:00 -3°C° 0 mm 6 mps 748 mmHg 72%
10:00 +1°C° 0 mm 5 mps 748 mmHg 71%
11:00 +2°C° 0 mm 5 mps 748 mmHg 68%
12:00 +4°C° 0 mm 4 mps 748 mmHg 65%
13:00 +6°C° 0 mm 4 mps 748 mmHg 63%
14:00 +5°C° 0 mm 4 mps 748 mmHg 62%
15:00 +4°C° 0 mm 3 mps 748 mmHg 61%
16:00 +3°C° 0 mm 4 mps 749 mmHg 63%
17:00 +1°C° 0 mm 4 mps 749 mmHg 68%
18:00 0°C° 0 mm 4 mps 750 mmHg 72%
19:00 -2°C° 0 mm 4 mps 751 mmHg 77%
20:00 -3°C° 0 mm 4 mps 751 mmHg 80%
21:00 -5°C° 0 mm 4 mps 752 mmHg 84%
22:00 -6°C° 0 mm 3 mps 753 mmHg 88%
23:00 -7°C° 0 mm 3 mps 753 mmHg 87%

Tomorrow, 17 January, Sunday

Time Temperature Precipitation Wind Pressure Humidity
00:00 -6°C° 0 mm 2 mps 753 mmHg 87%
01:00 -6°C° 0 mm 2 mps 754 mmHg 86%
02:00 -7°C° 0 mm 2 mps 754 mmHg 87%
03:00 -7°C° 0 mm 2 mps 754 mmHg 87%
04:00 -7°C° 0 mm 2 mps 754 mmHg 87%
05:00 -7°C° 0 mm 2 mps 754 mmHg 87%
06:00 -8°C° 0 mm 3 mps 754 mmHg 87%
07:00 -8°C° 0 mm 3 mps 754 mmHg 87%
08:00 -8°C° 0 mm 4 mps 754 mmHg 83%
09:00 -7°C° 0 mm 4 mps 754 mmHg 80%
10:00 -6°C° 0 mm 5 mps 754 mmHg 77%
11:00 -5°C° 0 mm 5 mps 754 mmHg 76%
12:00 -4°C° 0 mm 5 mps 753 mmHg 75%
13:00 -2°C° 0 mm 5 mps 752 mmHg 74%
14:00 -4°C° 0 mm 5 mps 752 mmHg 77%
15:00 -4°C° 0 mm 5 mps 751 mmHg 80%
16:00 -5°C° 0 mm 5 mps 751 mmHg 83%
17:00 -5°C° 0 mm 6 mps 751 mmHg 83%
18:00 -6°C° 0 mm 6 mps 750 mmHg 83%
19:00 -6°C° 0 mm 6 mps 750 mmHg 83%
20:00 -6°C° 0 mm 6 mps 750 mmHg 83%
21:00 -6°C° 0 mm 6 mps 749 mmHg 84%
22:00 -6°C° 0 mm 6 mps 749 mmHg 84%
23:00 -6°C° 0 mm 5 mps 749 mmHg 84%

Day after tomorrow, 18 January, Monday

Time Temperature Precipitation Wind Pressure Humidity
00:00 -6°C° 0 mm 5 mps 748 mmHg 84%
01:00 -6°C° 0 mm 5 mps 748 mmHg 84%
02:00 -6°C° 0 mm 5 mps 747 mmHg 84%
03:00 -6°C° 0 mm 5 mps 747 mmHg 84%
04:00 -6°C° 0 mm 5 mps 747 mmHg 84%
05:00 -6°C° 0 mm 5 mps 747 mmHg 83%
06:00 -6°C° 0 mm 5 mps 747 mmHg 82%
07:00 -5°C° 0 mm 4 mps 747 mmHg 81%
08:00 -4°C° 0 mm 4 mps 747 mmHg 78%
09:00 -3°C° 0 mm 4 mps 747 mmHg 76%
10:00 -2°C° 0 mm 4 mps 747 mmHg 73%
11:00 -1°C° 0 mm 4 mps 747 mmHg 71%
12:00 0°C° 0 mm 4 mps 746 mmHg 69%
13:00 0°C° 0 mm 4 mps 746 mmHg 67%
14:00 0°C° 0 mm 4 mps 746 mmHg 70%
15:00 -1°C° 0 mm 4 mps 746 mmHg 73%
16:00 -2°C° 0 mm 5 mps 746 mmHg 76%
17:00 -3°C° 0 mm 4 mps 746 mmHg 78%
18:00 -3°C° 0 mm 4 mps 746 mmHg 79%
19:00 -3°C° 0 mm 4 mps 746 mmHg 80%
20:00 -3°C° 0 mm 4 mps 745 mmHg 80%
21:00 -3°C° 0 mm 4 mps 745 mmHg 79%
22:00 -3°C° 0 mm 4 mps 745 mmHg 78%
23:00 -3°C° 0 mm 4 mps 745 mmHg 78%

19 January, Tuesday

Time Temperature Precipitation Wind Pressure Humidity
00:00 -3°C° 0 mm 4 mps 745 mmHg 79%
01:00 -3°C° 0 mm 4 mps 744 mmHg 79%
02:00 -2°C° 0 mm 3 mps 744 mmHg 79%
03:00 -2°C° 0 mm 2 mps 744 mmHg 79%
04:00 0°C° 0 mm 1 mps 744 mmHg 79%
05:00 -2°C° 0 mm 2 mps 745 mmHg 77%
06:00 -1°C° 0 mm 2 mps 745 mmHg 75%
07:00 -1°C° 0 mm 2 mps 745 mmHg 73%
08:00 0°C° 0 mm 3 mps 746 mmHg 70%
09:00 0°C° 0 mm 4 mps 746 mmHg 66%
10:00 +1°C° 0 mm 5 mps 746 mmHg 63%
11:00 +2°C° 0 mm 5 mps 746 mmHg 61%
12:00 +3°C° 0 mm 6 mps 746 mmHg 59%
13:00 +4°C° 0 mm 6 mps 746 mmHg 57%
14:00 +4°C° 0 mm 6 mps 746 mmHg 62%
15:00 +4°C° 0 mm 7 mps 747 mmHg 66%
16:00 +3°C° 0 mm 7 mps 747 mmHg 71%
17:00 +3°C° 0 mm 7 mps 747 mmHg 75%
18:00 +3°C° 0 mm 7 mps 748 mmHg 80%
19:00 +1°C° 0 mm 8 mps 748 mmHg 84%
20:00 +2°C° 0 mm 7 mps 749 mmHg 85%
21:00 +2°C° 0 mm 6 mps 750 mmHg 86%
22:00 +1°C° 0 mm 5 mps 751 mmHg 87%
23:00 0°C° 0 mm 5 mps 751 mmHg 89%

20 January, Wednesday

Time Temperature Precipitation Wind Pressure Humidity
00:00 -1°C° 0 mm 4 mps 752 mmHg 92%
01:00 -1°C° 0 mm 3 mps 753 mmHg 94%
02:00 -1°C° 0 mm 3 mps 753 mmHg 94%
03:00 -1°C° 0 mm 2 mps 753 mmHg 94%
04:00 -2°C° 0 mm 2 mps 753 mmHg 95%
05:00 -2°C° 0 mm 2 mps 753 mmHg 94%
06:00 -2°C° 0 mm 2 mps 753 mmHg 94%
07:00 -2°C° 0 mm 2 mps 753 mmHg 93%
08:00 +1°C° 0 mm 1 mps 753 mmHg 91%
09:00 +2°C° 0 mm 1 mps 753 mmHg 89%
10:00 +2°C° 0 mm 1 mps 752 mmHg 86%
11:00 +3°C° 0 mm 1 mps 752 mmHg 85%
12:00 +2°C° 0 mm 2 mps 751 mmHg 83%
13:00 +2°C° 0 mm 3 mps 751 mmHg 82%
14:00 +2°C° 0 mm 3 mps 750 mmHg 85%
15:00 0°C° 0 mm 4 mps 749 mmHg 87%
16:00 0°C° 0 mm 4 mps 748 mmHg 90%
17:00 -1°C° 0 mm 4 mps 748 mmHg 91%
18:00 0°C° 0 mm 3 mps 748 mmHg 92%
19:00 0°C° 0 mm 3 mps 747 mmHg 93%
20:00 -1°C° 0 mm 3 mps 747 mmHg 94%
21:00 -1°C° 0 mm 3 mps 747 mmHg 94%
22:00 -2°C° 0 mm 4 mps 747 mmHg 95%
23:00 -2°C° 0 mm 4 mps 747 mmHg 95%

21 January, Thursday

Time Temperature Precipitation Wind Pressure Humidity
00:00 -2°C° 0 mm 5 mps 747 mmHg 95%
01:00 -2°C° 0 mm 5 mps 747 mmHg 94%
02:00 -4°C° 0 mm 6 mps 748 mmHg 92%
03:00 -5°C° 0 mm 6 mps 748 mmHg 89%
04:00 -6°C° 0 mm 6 mps 748 mmHg 86%
05:00 -8°C° 0 mm 6 mps 749 mmHg 86%
06:00 -9°C° 0 mm 6 mps 749 mmHg 86%
07:00 -10°C° 0 mm 6 mps 750 mmHg 85%
08:00 -10°C° 0 mm 6 mps 750 mmHg 82%
09:00 -9°C° 0 mm 6 mps 751 mmHg 79%
10:00 -9°C° 0 mm 6 mps 751 mmHg 75%
11:00 -8°C° 0 mm 6 mps 752 mmHg 72%
12:00 -8°C° 0 mm 6 mps 752 mmHg 69%
13:00 -6°C° 0 mm 6 mps 752 mmHg 66%
14:00 -6°C° 0 mm 6 mps 752 mmHg 66%
15:00 -8°C° 0 mm 6 mps 752 mmHg 65%
16:00 -9°C° 0 mm 6 mps 753 mmHg 64%
17:00 -10°C° 0 mm 6 mps 754 mmHg 66%
18:00 -11°C° 0 mm 6 mps 754 mmHg 68%
19:00 -12°C° 0 mm 6 mps 755 mmHg 70%
20:00 -14°C° 0 mm 6 mps 756 mmHg 71%
21:00 -13°C° 0 mm 5 mps 757 mmHg 73%
22:00 -14°C° 0 mm 5 mps 757 mmHg 74%
23:00 -14°C° 0 mm 4 mps 758 mmHg 77%
Show more